| time (UTC) | temp F | wind direction | speed knots | gust knots | rain 1hr in | rain 24hr in | rain mn in | humidity % | barometer mb |
| 20260504024542 | 76 | 198 | 2.6 | 7.0 | 0.00 | 0.00 | 0.00 | 44 | 1008.2 |
| 20260504023053 | 79 | 236 | 2.6 | 4.3 | 0.00 | 0.00 | 0.00 | 44 | 1008.4 |
| 20260504021546 | 81 | 220 | 2.6 | 4.3 | 0.00 | 0.00 | 0.00 | 41 | 1008.4 |
| 20260504020056 | 83 | 248 | 1.7 | 3.5 | 0.00 | 0.00 | 0.00 | 43 | 1008.4 |
| 20260504014551 | 85 | 218 | 1.7 | 2.6 | 0.00 | 0.00 | 0.00 | 43 | 1008.3 |
| 20260504013042 | 88 | 178 | 0.9 | 2.6 | 0.00 | 0.00 | 0.00 | 35 | 1008.2 |
| 20260504011550 | 89 | 0 | 0.0 | 3.5 | 0.00 | 0.00 | 0.00 | 23 | 1008.5 |
| 20260504010042 | 89 | 63 | 0.9 | 3.5 | 0.00 | 0.00 | 0.00 | 23 | 1008.9 |
| 20260504004541 | 90 | 78 | 0.9 | 5.2 | 0.00 | 0.00 | 0.00 | 25 | 1009.2 |
| 20260504003047 | 90 | 109 | 0.0 | 2.6 | 0.00 | 0.00 | 0.00 | 27 | 1009.3 |
| 20260504001545 | 89 | 58 | 1.7 | 4.3 | 0.00 | 0.00 | 0.00 | 24 | 1009.3 |
| 20260504000047 | 90 | 0 | 0.9 | 3.5 | 0.00 | 0.00 | 0.00 | 22 | 1009.4 |
| 20260503234543 | 89 | 265 | 0.9 | 4.3 | 0.00 | 0.00 | 0.00 | 29 | 1009.7 |
| 20260503233040 | 89 | 200 | 2.6 | 6.1 | 0.00 | 0.00 | 0.00 | 24 | 1009.9 |
| 20260503231548 | 89 | 51 | 2.6 | 7.0 | 0.00 | 0.00 | 0.00 | 24 | 1010.0 |
| 20260503224545 | 88 | 105 | 1.7 | 5.2 | 0.00 | 0.00 | 0.00 | 25 | 1010.4 |
| 20260503223045 | 88 | 246 | 1.7 | 5.2 | 0.00 | 0.00 | 0.00 | 26 | 1010.6 |
| 20260503221541 | 88 | 87 | 1.7 | 7.0 | 0.00 | 0.00 | 0.00 | 29 | 1010.9 |
| 20260503220043 | 87 | 84 | 0.9 | 7.8 | 0.00 | 0.00 | 0.00 | 30 | 1011.1 |
| 20260503214543 | 87 | 0 | 2.6 | 6.1 | 0.00 | 0.00 | 0.00 | 26 | 1011.2 |
| 20260503213045 | 87 | 330 | 0.9 | 5.2 | 0.00 | 0.00 | 0.00 | 32 | 1011.3 |
| 20260503211605 | 86 | 108 | 2.6 | 7.0 | 0.00 | 0.00 | 0.00 | 31 | 1011.4 |
| 20260503210046 | 85 | 94 | 0.9 | 8.7 | 0.00 | 0.00 | 0.00 | 34 | 1011.6 |
| 20260503204548 | 85 | 75 | 4.3 | 8.7 | 0.00 | 0.00 | 0.00 | 29 | 1011.8 |
| 20260503203049 | 86 | 103 | 1.7 | 7.0 | 0.00 | 0.00 | 0.00 | 32 | 1012.0 |
| 20260503201543 | 85 | 103 | 2.6 | 6.1 | 0.00 | 0.00 | 0.00 | 28 | 1012.1 |
| 20260503200054 | 85 | 98 | 2.6 | 7.8 | 0.00 | 0.00 | 0.00 | 33 | 1012.3 |
| 20260503194547 | 85 | 154 | 1.7 | 7.0 | 0.00 | 0.00 | 0.00 | 33 | 1012.5 |
| 20260503193055 | 84 | 134 | 1.7 | 7.0 | 0.00 | 0.00 | 0.00 | 36 | 1012.5 |
| 20260503191545 | 84 | 0 | 1.7 | 7.8 | 0.00 | 0.00 | 0.00 | 31 | 1012.4 |
| 20260503190050 | 83 | 0 | 0.9 | 5.2 | 0.00 | 0.00 | 0.00 | 34 | 1012.8 |
| 20260503184558 | 83 | 126 | 1.7 | 3.5 | 0.00 | 0.00 | 0.00 | 35 | 1012.9 |
| 20260503183043 | 82 | 167 | 0.9 | 4.3 | 0.00 | 0.00 | 0.00 | 34 | 1012.8 |
| 20260503181607 | 82 | 145 | 1.7 | 5.2 | 0.00 | 0.00 | 0.00 | 35 | 1013.0 |
| 20260503180106 | 81 | 62 | 1.7 | 3.5 | 0.00 | 0.00 | 0.00 | 38 | 1013.1 |
| 20260503174549 | 80 | 52 | 1.7 | 4.3 | 0.00 | 0.00 | 0.00 | 38 | 1013.1 |
| 20260503173058 | 79 | 309 | 1.7 | 4.3 | 0.00 | 0.00 | 0.00 | 45 | 1012.9 |
| 20260503171545 | 77 | 5 | 1.7 | 7.0 | 0.00 | 0.00 | 0.00 | 46 | 1013.1 |
| 20260503081544 | 54 | 0 | 0.0 | 2.6 | 0.00 | 0.00 | 0.00 | 90 | 1013.5 |
| 20260503071557 | 55 | 210 | 0.9 | 2.6 | 0.00 | 0.00 | 0.00 | 91 | 1013.6 |
| 20260503054541 | 57 | 0 | 0.0 | 2.6 | 0.00 | 0.00 | 0.00 | 88 | 1014.0 |
| 20260503053048 | 58 | 268 | 0.9 | 1.7 | 0.00 | 0.00 | 0.00 | 87 | 1013.8 |
| 20260503051544 | 58 | 300 | 0.9 | 2.6 | 0.00 | 0.00 | 0.00 | 87 | 1014.0 |
| 20260503050053 | 58 | 0 | 0.0 | 2.6 | 0.00 | 0.00 | 0.00 | 86 | 1014.2 |
| 20260503044547 | 59 | 0 | 0.0 | 2.6 | 0.00 | 0.00 | 0.00 | 86 | 1014.3 |
| 20260503043056 | 59 | 0 | 0.9 | 3.5 | 0.00 | 0.00 | 0.00 | 84 | 1014.3 |
| 20260503041545 | 60 | 162 | 1.7 | 3.5 | 0.00 | 0.00 | 0.00 | 83 | 1014.3 |
| 20260503040052 | 61 | 215 | 1.7 | 2.6 | 0.00 | 0.00 | 0.00 | 81 | 1014.0 |
| 20260503034543 | 62 | 155 | 0.9 | 2.6 | 0.00 | 0.00 | 0.00 | 79 | 1013.8 |
| 20260503033042 | 64 | 0 | 0.0 | 7.0 | 0.00 | 0.00 | 0.00 | 74 | 1013.5 |
| 20260503031542 | 64 | 39 | 0.9 | 7.0 | 0.00 | 0.00 | 0.00 | 74 | 1013.7 |
| 20260503030059 | 65 | 54 | 1.7 | 9.6 | 0.00 | 0.00 | 0.00 | 71 | 1013.5 |